Location: Bushey
(51.6333°N, 0.3667°W)
Time: 23:54:04
(UTC+00:00)

Cosmos 1844 Rocket - Pass Details

Date: 03 March 2021
Orbit: 826 x 843 km, 71.0° (Epoch: 11 April)

Event Time Altitude Azimuth Distance (km) Brightness Sun altitude
Rises 20:04:09 0° 324° (NW) 3,377 6.7 -22.1°
Reaches altitude 10° 20:06:48 10° 315° (NW) 2,438 6.0 -22.4°
Maximum altitude 20:11:41 32° 254° (WSW) 1,378 4.2 -23.2°
Drops below altitude 10° 20:16:34 10° 192° (SSW) 2,425 5.0 -23.9°
Enters shadow 20:17:49 - 187° (S) 2,857 5.3 -24.0°
